Location: ????????
(55.3939°N, 37.4780°E)
Time: 23:01:39
(UTC+00:00)

Cosmos 2369 Rocket - Pass Details

Date: 14 April 2026
Orbit: 829 x 850 km, 71.0° (Epoch: 13 May)

Event Time Altitude Azimuth Distance (km) Brightness Sun altitude
Rises 20:26:30 0° 323° (NW) 3,387 6.5 -23.6°
Reaches altitude 10° 20:29:07 10° 315° (NW) 2,447 5.4 -23.7°
Maximum altitude 20:34:08 35° 251° (WSW) 1,313 3.1 -23.9°
Enters shadow 20:35:05 33° 230° (SW) 1,369 3.0 -23.9°
